World > North America > United States > South Carolina > Union

Union, SC Hourly Weather Conditions

Feedback E-mail the Weather

Quick WX

Union, SC Weather Maps

°F °C°F °C
Union Weather Map
UTC Time: 2/9/2023, 06:03
Your Time:

Union, SC Regional Weather

Expires:202302090600;;044840
ASUS42 KCAE 090510
RWRCAE
REGIONAL WEATHER ROUNDUP
NATIONAL WEATHER SERVICE COLUMBIA SC
1200 AM EST THU FEB 09 2023

NOTE: "FAIR" INDICATES FEW OR NO CLOUDS BELOW 12,000 FEET WITH NO
SIGNIFICANT WEATHER AND/OR OBSTRUCTIONS TO VISIBILITY.

NOT ALL STATIONS ARE QUALITY CONTROLLED BY THE NATIONAL 
WEATHER SERVICE. USE DATA WITH CAUTION...ESPECIALLY 
DEWPOINT OBSERVATIONS.


SCZ001>059-115-116-135>137-GAZ040-063>065-077-090600-
...UPSTATE SOUTH CAROLINA...
  
CITY           SKY/WX    TMP DP  RH WIND       PRES   REMARKS
ANDERSON       PTCLDY    54  50  86 CALM      30.21F                  
LIBERTY        CLOUDY    53  51  94 E5        30.21F                  
SPARTANBURG    MOCLDY    52  45  76 CALM      30.24S                  
GREENVILLE     CLOUDY    60  47  61 CALM      30.23F                  
GREENWOOD      CLEAR     55  50  83 SE6       30.23F                  
GREER          CLOUDY    57  45  64 NE3       30.24F                  
ROCK HILL      CLEAR     55  49  80 CALM      30.24S                  
LAURENS        CLEAR     59  52  77 S7        30.23S                  


...CENTRAL SOUTH CAROLINA...
  
CITY           SKY/WX    TMP DP  RH WIND       PRES   REMARKS
COLUMBIA APT   PTCLDY    52  50  93 CALM      30.24F                  
COLUMBIA OWENS CLEAR     52  50  93 CALM      30.25F                  
MCENTIRE ANGB  CLEAR     54  53  99 SE6       30.23F                  
ORANGEBURG     PTCLDY    55  51  86 CALM      30.26S                  
SUMTER SHAW    CLEAR     51  47  88 CALM      30.25S                  
AIKEN          FAIR      58  49  71 S7        30.25S                  
BARNWELL       FAIR      57  50  77 CALM      30.25S                  
MANNING        FAIR      50  48  93 CALM      30.26F                  
CAMDEN         FAIR      50  48  93 CALM      30.26S                  
LANCASTER      CLOUDY    57  50  77 SE3       30.24S                  
WINNSBORO      CLEAR     57  52  82 SE5       30.25R                  


...EASTERN AND COASTAL SOUTH CAROLINA...
  
CITY           SKY/WX    TMP DP  RH WIND       PRES   REMARKS
MYRTLE BEACH   PTCLDY    59  57  93 S5        30.29S                  
N MYRTLE BCH   PTCLDY    56  54  93 SW5       30.28F                  
CONWAY         FAIR      48  46  93 CALM      30.28F                  
MARION         FAIR      54  50  87 S3        30.28R                  
HARTSVILLE     CLOUDY    55  52  88 CALM      30.26S                  
FLORENCE       PTCLDY    55  50  83 S3        30.27S                  
DARLINGTON     PTCLDY    53  53 100 CALM      30.26F                  
CHARLESTON APT PTCLDY    57  53  86 CALM      30.27S                  
MOUNT PLEASANT FAIR      52  52 100 CALM      30.27S                  
WALTERBORO     CLEAR     50  50 100 E5        30.27F                  
BEAUFORT       CLEAR     54  53  97 CALM      30.26S                  
HILTON HEAD    CLEAR     63  57  82 CALM      30.27S                  


...EASTERN GEORGIA...
  
CITY           SKY/WX    TMP DP  RH WIND       PRES   REMARKS
AUGUSTA BUSH F CLEAR     50  48  93 CALM      30.23S                  
AUGUSTA DANIEL CLEAR     60  52  74 SE6       30.24S                  
THOMSON        CLEAR     60  51  73 S6        30.22F                  
CLAXTON        FAIR      54  51  89 CALM      30.25S                  
SYLVANIA       CLEAR     56  51  83 CALM      30.26S                  
STATESBORO     CLEAR     56  51  81 CALM      30.25S                  
SAVANNAH       CLEAR     60  54  80 SE7       30.25F                  


...SOUTHERN NORTH CAROLINA...
  
CITY           SKY/WX    TMP DP  RH WIND       PRES   REMARKS
CHARLOTTE      MOCLDY    54  48  80 S5        30.24S                  
MONROE         PTCLDY    57  48  72 S3        30.24S                  
WADESBORO      PTCLDY    49  46  89 CALM      30.24F                  
ROCKINGHAM     PTCLDY    59  50  72 CALM      30.25F                  
RUTHERFORDTON  MOCLDY    50  45  81 CALM      30.25S                  
ASHEVILLE      MOCLDY    50  50 100 S5        30.24F FOG              

$$
  

SKY/WX - Weather  TMP - Temperature  DP - Dew Point  RH - Humidity
WIND - Wind Direction/Speed PRES - Barometric Pressure VSB - Visibility
WCI - Wind Chill Index E13G22 Wind - East Wind 13 mph/Gusts of 22 mph

Trending Headlines

Trending Entertainment Headlines

Union Radar Loop

Use the map search tool if you want to place a location marker on the radar map...

Union Quick Facts

National Two Day Weather Forecast


E-mail the Union Weather Forecast

Voice your opinion or tell us about page issues...